EHI
0 0 0 0 0 0 0 0 0 0 0 0 0 0 0 0 0 0 0 0 0 0 0 0 1 1 1 0 1 1 1 0 0 0 0 0 0 0 0 0 0 0 0 0
0 0 0 0 0 0 0 0 0 0 0 0 0 0 0 0 0 0 0 0 0 0 0 0 0 0 0 0 0 0 0 0 0 0 0 0 0 0 0 0 0 0 0 0
0 0 0 0 0 0 0 0 0 0 0 0 0 0 0 0 0 0 0 0 0 0 0 0 0 0 0 0 0 0 0 0 0 0 0 0 0 0 0 0 0 0 0 0
0 0 0 0 0 0 0 0 0 0 0 0 0 0 0 0 0 0 0 0 0 0 0 0 0 0 0 0 0 0 0 0 0 0 0 0 0 0 0 0 0 0 0 0
0 0 0 0 0 0 0 0 0 0 0 0 0 0 0 0 0 0 0 0 0 0 0 0 0 0 0 0 0 0 0 0 0 0 0 0 0 0 0 0 0 0 0 0
0 0 0 0 0 0 0 0 0 0 0 0 0 0 0 0 0 0 0 0 0 0 0 0 0 0 0 0 0 0 0 0 0 0 0 0 0 0 0 0 0 0 0 0
0 0 0 0 0 0 0 0 0 0 0 0 0 0 0 0 0 0 0 0 0 0 0 0 0 0 0 0 0 0 0 0 0 0 0 0 0 0 0 0 0 0 0 0
0 0 0 0 0 0 0 0 0 0 0 0 0 0 0 0 0 0 0 0 0 0 0 0 0 0 0 0 0 0 0 0 0 0 0 0 0 0 0 0 0 0 0 0
0 0 0 0 0 0 0 0 0 0 0 0 0 0 0 0 0 0 0 0 0 0 0 0 0 0 0 0 0 0 0 0 0 0 0 0 0 0 0 0 0 0 0 0
0 0 0 0 0 0 0 0 0 0 0 0 0 0 0 0 0 0 0 0 0 0 0 0 0 0 0 0 0 0 0 0 0 0 0 0 0 0 0 0 0 0 0 0
0 0 0 0 0 0 0 0 0 0 0 0 0 0 0 0 0 0 0 0 0 0 0 0 0 0 0 0 0 0 0 0 0 0 0 0 0 0 0 0 0 0 0 0
0 0 0 0 0 0 0 0 0 0 0 0 0 0 0 0 0 0 0 0 0 0 0 0 0 0 0 0 0 0 0 0 0 0 0 0 0 0 0 0 0 0 0 0
0 0 0 0 0 0 0 0 0 0 0 0 0 0 0 0 0 0 0 0 0 0 0 0 0 0 0 0 0 0 0 0 0 0 0 0 0 0 0 0 0 0 0 0
0 0 0 0 0 0 0 0 0 0 0 0 0 0 0 0 0 0 0 0 0 0 0 0 0 0 0 0 0 0 0 0 0 0 0 0 0 0 0 0 0 0 0 0
0 0 0 0 0 0 0 0 0 0 0 0 0 0 0 0 0 0 0 0 0 0 0 0 0 0 0 0 0 0 0 0 0 0 0 0 0 0 0 0 0 0 0 0
0 0 0 0 0 0 0 0 0 0 0 0 0 0 0 0 0 0 0 0 0 0 0 0 0 0 0 0 0 0 0 0 0 0 0 0 0 0 0 0 0 0 0 0
0 0 0 0 0 0 0 0 0 0 0 0 0 0 0 0 0 0 0 0 0 0 0 0 0 0 0 0 0 0 0 0 0 0 0 0 0 0 0 0 0 0 0 0
0 0 0 0 0 0 0 0 0 0 0 0 0 0 0 0 0 0 0 0 0 0 0 0 0 0 0 0 0 0 0 0 0 0 0 0 0 0 0 0 0 0 0 0
0 0 0 0 0 0 0 0 0 0 0 0 0 0 0 0 0 0 0 0 0 0 0 0 0 0 0 0 0 0 0 0 0 0 0 0 0 0 0 0 0 0 0 0
0 0 0 0 0 0 0 0 0 0 0 0 0 0 0 0 0 0 0 0 0 0 0 0 0 0 0 0 0 0 0 0 0 0 0 0 0 0 0 0 0 0 0 0
0 0 0 0 0 0 0 0 0 0 0 0 0 0 0 0 0 0 0 0 0 0 0 0 0 0 0 0 0 0 0 0 0 0 0 0 0 0 0 0 0 0 0 0
0 0 0 0 0 0 0 0 0 0 0 0 0 0 0 0 0 0 0 0 0 0 0 0 0 0 0 0 0 0 0 0 0 0 0 0 0 0 0 0 0 0 0 0
0 0 0 0 0 0 0 0 0 0 0 0 0 0 0 0 0 0 0 0 0 0 0 0 0 0 0 0 0 0 0 0 0 0 0 0 0 0 0 0 0 0 0 0
0 0 0 0 0 0 0 0 0 0 0 0 0 0 0 0 0 0 0 0 0 0 0 0 0 0 0 0 0 0 0 0 0 0 0 0 0 0 0 0 0 0 0 0
0 0 0 0 0 0 0 0 0 0 0 0 0 0 0 0 0 0 0 0 0 0 0 0 0 0 0 0 0 0 0 0 0 0 0 0 0 0 0 0 0 0 0 0
0 0 0 0 0 0 0 0 0 0 0 0 0 0 0 0 0 0 0 0 0 0 0 0 0 0 0 0 0 0 0 0 0 0 0 0 0 0 0 0 0 0 0 0
Wind_Speed
1 1 5 7 7 5 3 5 7 6 3 3 7 8 7 4 3 4 4 3 4 5 3 2 3 4 4 5 6 6 6 6 6 4 4 4 3 3 2 2 3 4 4 5
2 5 6 3 3 4 5 6 6 5 3 4 5 8 8 5 3 3 3 3 3 2 1 1 2 4 5 6 6 6 6 7 6 5 4 3 3 2 2 2 3 3 4 4
4 3 3 2 3 4 7 7 6 5 3 2 2 6 5 3 1 1 1 2 2 3 3 2 2 3 4 5 6 6 6 6 6 5 4 4 4 3 2 2 2 2 3 4
4 4 3 3 4 4 8 5 5 5 3 4 4 5 5 3 1 2 2 2 2 2 2 2 2 3 4 5 5 6 6 6 6 6 6 7 5 4 3 3 2 2 3 3
4 2 2 4 4 3 5 4 5 5 4 3 3 4 6 1 3 3 3 3 2 1 1 2 2 2 3 3 5 6 6 6 6 6 7 7 5 3 3 3 4 3 2 2
4 2 2 3 5 3 2 1 1 1 2 5 6 6 5 2 4 3 3 2 2 2 1 0 1 1 1 2 3 5 6 6 6 6 6 6 6 5 5 4 4 3 2 2
6 4 3 2 4 3 1 2 1 1 3 6 4 5 5 2 2 2 3 4 3 1 1 1 1 2 1 2 3 4 6 5 6 6 5 6 6 7 7 5 5 4 3 2
4 6 4 3 1 3 3 3 4 4 4 2 2 5 3 3 4 3 3 3 3 3 2 1 0 1 2 2 2 3 5 5 5 6 5 4 5 4 4 4 4 4 3 3
2 7 5 5 3 0 1 2 2 1 1 2 3 2 4 6 7 7 6 6 5 4 4 2 1 1 2 2 1 2 4 4 5 5 5 4 4 4 4 4 3 3 2 3
1 6 6 5 3 3 1 1 1 2 2 3 2 2 3 6 8 8 7 6 6 5 4 4 2 1 1 1 1 2 3 4 4 4 5 4 4 4 4 4 4 3 3 3
0 2 6 4 2 3 4 3 2 1 2 2 2 2 2 3 5 6 6 6 5 4 4 3 3 3 2 2 2 2 2 2 3 3 3 4 4 3 3 3 3 3 3 3
1 1 4 4 3 1 1 1 1 1 3 2 2 3 3 4 5 5 6 6 6 5 4 4 4 4 4 3 2 2 2 2 2 2 3 3 3 4 3 3 3 3 3 3
1 1 3 5 3 4 2 3 2 1 1 1 2 3 4 6 7 7 6 6 5 5 5 5 5 4 4 3 3 2 2 1 1 2 3 4 3 4 3 3 3 3 3 3
3 1 3 5 5 3 5 6 4 1 1 3 3 5 7 8 8 9 8 7 5 5 4 5 5 5 4 3 3 3 3 2 1 2 3 3 3 3 3 3 3 3 3 3
3 1 2 4 4 2 3 5 4 2 2 3 5 6 6 7 6 6 7 8 7 6 6 5 5 4 4 4 4 3 3 3 2 1 2 2 2 2 2 2 2 2 2 2
3 2 3 4 3 3 4 6 5 3 3 3 5 6 6 6 5 6 7 7 7 7 6 6 5 5 5 5 4 4 3 2 2 1 1 1 2 2 2 2 2 2 2 2
2 1 2 3 4 3 3 5 5 3 4 3 4 7 7 7 7 6 6 7 6 6 6 6 5 5 5 4 4 3 3 2 2 2 2 1 2 2 2 2 2 2 2 2
2 1 1 1 2 1 3 2 4 4 4 4 5 7 7 7 7 5 5 5 6 6 6 6 5 5 4 4 4 3 3 2 2 2 2 1 1 2 2 2 2 2 2 2
1 1 0 1 1 3 3 4 5 4 4 6 7 9 10 9 5 4 7 7 6 6 6 5 4 4 3 3 3 3 3 3 3 2 2 1 1 1 2 2 1 1 2 1
4 3 2 1 0 2 4 7 7 2 3 7 9 9 10 9 5 6 9 9 8 7 6 6 5 5 4 4 3 3 3 3 3 2 2 1 0 1 1 1 1 1 1 2
4 4 3 1 1 4 4 8 5 2 5 9 8 8 7 5 4 6 8 8 7 7 7 6 6 5 5 4 3 3 3 3 3 2 2 1 0 1 1 1 1 1 1 1
0 1 1 0 0 4 5 5 3 3 6 7 7 7 7 6 6 6 7 8 8 8 8 7 6 6 6 5 4 4 4 4 3 3 2 1 1 1 1 2 1 1 1 2
1 2 2 3 3 2 3 3 3 4 5 6 6 7 6 6 6 7 7 7 7 7 7 7 6 6 7 6 5 5 5 4 3 3 3 2 3 2 2 2 1 1 1 1
2 1 1 2 3 3 4 4 5 5 5 6 6 6 5 5 6 6 6 7 7 7 7 6 6 6 7 7 7 5 5 4 4 3 3 3 3 3 3 2 1 1 1 1
2 1 1 3 4 5 4 5 6 7 7 7 7 6 6 6 6 6 6 6 6 7 6 6 6 6 7 7 7 7 6 5 4 4 4 4 3 3 3 3 2 1 1 0
1 1 1 3 3 3 5 6 7 7 7 7 7 7 7 6 6 6 6 6 6 6 6 6 7 7 7 7 7 8 7 5 4 4 4 3 3 2 2 2 3 5 4 5
Wind_Direction
8 130 225 229 226 247 251 247 252 254 244 209 234 255 271 270 250 240 239 235 230 235 247 189 170 164 156 154 154 155 158 151 143 140 144 143 146 140 133 135 139 139 136 135
24 253 258 281 255 260 257 263 266 274 247 221 251 269 271 252 231 225 222 226 232 248 294 233 164 161 168 168 166 159 161 159 159 157 150 139 133 131 127 126 124 134 137 138
221 276 316 315 276 261 258 237 245 265 282 240 256 279 263 268 239 269 270 248 233 213 219 219 176 178 170 169 170 165 165 161 157 144 128 112 94 87 97 118 130 134 139 138
263 289 311 297 257 233 256 240 242 261 237 239 187 264 269 251 281 289 287 290 269 259 232 215 178 166 168 172 164 155 158 157 153 147 148 150 152 156 166 157 149 135 136 138
279 295 298 274 271 240 245 265 239 242 229 246 196 222 277 292 271 289 289 281 279 276 231 206 194 182 171 154 155 152 150 152 152 154 156 154 149 143 131 130 135 140 140 136
284 296 290 278 293 253 272 327 314 232 177 238 205 190 271 237 241 280 303 299 301 323 317 356 45 98 115 125 134 146 149 152 152 153 156 159 156 146 140 142 150 150 142 140
326 320 321 332 342 341 30 104 37 306 217 237 188 185 241 286 321 314 321 320 317 338 354 37 63 92 102 125 138 150 152 154 157 157 163 167 164 159 159 161 163 157 155 165
326 305 318 343 296 260 252 191 181 207 220 267 198 212 237 340 337 344 354 354 0 1 1 12 124 130 132 128 134 143 157 158 161 163 166 167 162 161 163 164 163 170 177 177
303 286 319 330 326 353 289 250 244 183 268 252 242 269 314 350 358 4 9 12 2 352 355 354 8 83 112 116 123 147 153 153 163 167 162 162 163 163 163 163 159 166 167 162
234 282 302 318 344 359 277 267 55 155 198 235 260 254 289 336 345 349 355 350 344 350 360 8 10 29 75 102 106 126 135 153 156 160 163 159 164 164 159 156 161 164 165 161
240 268 306 343 10 339 2 8 323 244 221 204 238 264 347 336 336 340 342 345 343 351 355 8 15 23 47 68 79 99 116 121 135 149 152 147 149 144 142 151 161 164 163 160
274 180 282 275 273 293 100 343 321 255 280 267 223 256 347 5 353 352 350 351 358 10 17 26 28 31 38 46 58 67 97 116 138 148 142 138 136 137 141 148 156 157 159 162
330 86 333 334 346 14 11 348 319 264 279 266 231 264 348 6 2 359 356 353 5 16 23 29 30 27 29 30 34 41 57 92 113 135 139 136 139 141 150 158 157 159 161 162
4 135 195 230 268 304 306 324 329 336 235 271 253 282 323 348 348 348 351 352 3 15 23 26 25 19 15 20 24 28 25 37 75 108 133 145 154 158 162 160 157 162 164 164
32 299 254 260 277 288 319 323 336 343 280 247 277 287 314 328 326 337 347 353 359 6 12 14 12 8 7 13 13 13 21 26 40 96 119 151 157 148 145 149 154 152 154 165
14 310 297 286 285 314 340 350 343 334 332 304 301 301 334 333 343 351 350 351 349 352 358 1 1 3 3 0 0 3 7 15 32 71 100 113 131 134 140 149 148 144 148 155
325 323 314 287 307 350 343 341 334 341 345 334 311 310 333 344 344 335 331 338 337 342 351 355 352 351 350 348 350 357 355 5 32 46 66 71 107 126 139 141 142 152 158 152
248 267 249 292 20 276 266 338 348 330 340 353 346 338 338 326 320 325 337 341 339 343 347 347 348 347 349 352 358 2 8 25 41 38 49 59 85 110 117 128 144 156 156 165
223 183 50 32 305 286 321 354 345 320 323 1 351 343 340 334 336 356 1 353 343 341 344 342 342 344 352 4 6 11 18 28 35 26 22 33 66 111 120 130 154 166 159 168
38 52 85 72 142 267 302 318 321 288 320 354 348 340 339 347 351 330 343 346 348 353 357 358 360 7 9 7 14 23 20 26 18 359 345 351 13 144 149 156 168 182 177 183
4 19 48 71 233 273 312 323 353 54 307 325 332 332 335 333 309 313 333 345 353 357 0 5 9 12 4 3 21 26 18 3 348 352 355 356 2 147 147 132 133 148 144 133
297 358 332 81 275 279 338 4 32 302 314 324 326 330 331 328 337 344 347 353 358 0 4 8 11 7 360 4 17 18 6 350 356 6 11 19 35 67 88 103 94 91 115 121
213 206 213 202 226 282 339 342 322 325 325 326 327 331 337 342 348 350 352 356 358 359 360 2 8 5 2 3 11 9 351 354 4 16 31 38 40 42 58 91 103 93 94 112
306 329 250 283 290 311 327 346 350 347 336 329 332 335 345 344 345 350 355 356 359 359 358 1 9 10 3 2 7 5 353 358 15 26 33 43 52 44 40 46 66 86 102 122
283 323 311 283 300 324 343 353 347 344 344 344 347 354 352 354 351 349 351 354 356 355 357 5 9 6 -0 1 5 3 1 7 20 31 34 39 47 48 41 37 35 34 25 82
318 233 229 261 297 302 305 330 340 342 345 346 351 355 357 359 354 354 354 354 357 359 3 6 6 4 2 3 4 4 2 7 21 33 34 37 40 42 44 46 41 38 40 37